User: anonymous   Login
Location: Sungai Laei
(2.6000°N, 113.7167°E)
Time: 09:11:47
(UTC+00:00)
Language:

Nadezhda 3 Rocket - Orbit

View from above orbital plane
View from above orbital plane
View from above satellite
View from above satellite

Ground track
Ground track

The orbit data is extracted from the following two-line orbital elements,

1 21153U 91019B   22222.34771977  .00000038  00000-0  23587-4 0  9997
2 21153  82.9223 243.8600 0027849 299.1315  71.4194 13.76048225576959
Epoch (UTC): 10 August 2022 08:20:42
Eccentricity: 0.0027849
inclination: 82.9223°
perigee height: 957 km
apogee height: 998 km
right ascension of ascending node: 243.8600°
argument of perigee: 299.1315°
revolutions per day: 13.76048225
mean anomaly at epoch: 71.4194°
orbit number at epoch: 57695

The dashed part of the orbit path shows where the satellite is in the earth's shadow,  

DLR